Location: Bosdarros
(43.2167°N, 0.3667°W)
Time: 16:26:50
(UTC+00:00)

Cosmos 407 Rocket - Pass Details

Date: 22 April 2021
Orbit: 743 x 787 km, 74.0° (Epoch: 12 May)

Event Time Altitude Azimuth Distance (km) Brightness Sun altitude
Rises 19:58:04 0° 186° (S) 3,169 6.5 -11.7°
Reaches altitude 10° 20:00:26 10° 182° (S) 2,252 5.7 -12.1°
Maximum altitude 20:05:24 56° 105° (ESE) 892 3.5 -12.9°
Drops below altitude 10° 20:10:27 10° 29° (NNE) 2,288 6.0 -13.6°
Sets 20:12:53 0° 25° (NNE) 3,224 6.8 -14.0°
